Weather in Kochubey

Russia / Republic of Dagestan     44°23′31″N   46°32′45″E
temp.,
°C
wind,
m/s
gust,
m/s
humid.,
%
clouds,
%
prec.,
mm/h
press.,
hPa
HPBL,
m
18 may, wed
wed1800:00+17wnw7106197 0.1 1015659
03:00+16nw596899 0.1 1015388
06:00+16wnw346795 0.0 1016339
09:00+19wsw4451100 0.0 10161109
12:00+23ssw23386 0.0 10141943
15:00+21ese985297 0.0 1013810
18:00+20se9105016 0.0 1012821
21:00+16se713705 0.0 1013430
19 may, thu
thu1900:00+15se6127111 0.0 1012382
03:00+14se511747 0.0 1012274
06:00+16se511673 0.0 1012352
09:00+21sse34475 0.0 1013756
12:00+24ene43445 0.0 10131124
15:00+23e76468 0.0 1012475
18:00+20e5754100 0.0 1012282
21:00+19nnw7949100 0.0 10141007
20 may, fri
fri2000:00+14nw111372100 0.0 1016941
03:00+12wnw91473100 0.5 10161107
06:00+12wsw91470100 0.3 10171084
09:00+14w11156563 0.4 10161358
12:00+16wnw111356100 0.1 10171473
15:00+18nw101244100 0.1 10172011
18:00+17wnw9125397 0.0 10181311
21:00+15w7116699 0.2 1019520
21 may, sat
sat2100:00+13w8137332 0.1 1019500
03:00+12w712785 0.1 1019377
06:00+12w610725 0.0 1019374
09:00+18w674973 0.0 10181267
12:00+21w7934100 0.0 10162471
15:00+22w6833100 0.0 10132468
18:00+21nw5540100 0.0 1013808
21:00+15nnw6984100 0.6 1014379
22 may, sun
sun2200:00+15sw81384100 2.4 1013540
03:00+15sw6117895 2.8 1011379
06:00+15sw58829 0.0 1011301
09:00+20wsw455367 0.0 1009770
12:00+21nw5543100 0.0 1008934
15:00+23n223857 0.0 1007826
18:00+21e444942 0.0 1006352
21:00+19e356179 0.0 100691